Location: G�zyaka Da??
(36.8500°N, 30.5667°E)
Time: 00:06:37
(UTC+00:00)

Daily predictions for brighter satellites

Satellite Brightness Start Highest point End
(mag) Time Altitude Azimuth Time Altitude Azimuth Time Altitude Azimuth
CZ-4C R/B 3.5 02:02:57 45° NNE 02:04:51 54° NE 02:12:56 10° SE
Aureole 1 Rocket 4.5 02:13:42 53° S 02:13:42 53° S 02:19:17 10° SSE
FALCON 9 R/B 3.0 02:14:14 66° SSW 02:15:01 71° SSE 02:33:31 10° E
COBE Rocket 4.4 02:21:17 10° SSE 02:25:42 55° E 02:25:42 55° E
Nadezhda 4 Rocket 4.5 02:21:30 17° N 02:26:19 58° E 02:32:19 10° SSE
Cosmos 1932 4.3 02:26:27 88° NNE 02:26:27 88° NNE 02:32:50 10° NNE
Cosmos 1190 Rocket 4.5 02:28:33 55° NE 02:29:04 57° ENE 02:34:12 10° SSE
SL-16 R/B 2.7 02:39:46 46° SSW 02:39:46 46° SSW 02:43:53 10° S
Okean O Rocket 4.0 02:44:30 10° NE 02:48:02 23° E 02:51:34 10° SSE
Meteor 2-11 Rocket 4.3 02:42:27 10° SSW 02:48:29 66° W 02:54:35 10° N
Cosmos 2242 Rocket 3.5 02:53:27 68° N 02:54:00 85° E 02:58:29 10° S
Cosmos 614 Rocket 3.9 03:01:00 56° WSW 03:01:00 56° WSW 03:05:55 10° S
Cosmos 1634 Rocket 4.3 02:56:02 10° S 03:02:10 65° E 03:08:16 10° NNE
Cosmos 2034 Rocket 4.1 02:58:47 10° SSW 03:04:51 50° W 03:11:00 10° N
USA 234 3.8 03:01:29 10° NNE 03:07:17 35° NNW 03:08:17 34° NW
Meteor 1-27 Rocket 4.0 03:06:48 44° WNW 03:07:38 46° W 03:13:11 10° SSW
ALOS 2.8 03:04:13 10° NNE 03:08:51 61° E 03:13:27 10° S
Cosmos 1452 Rocket 3.5 03:04:08 10° SSW 03:09:23 81° ESE 03:14:41 10° NNE
Cosmos 1340 4.2 03:06:42 10° SSE 03:10:09 36° E 03:13:37 10° NNE
Meteor 1-20 Rocket 4.2 03:05:07 10° S 03:10:57 89° E 03:16:49 10° N
Cosmos 1140 Rocket 3.4 03:14:34 33° NW 03:16:49 64° WSW 03:21:58 10° S
Cosmos 407 Rocket 3.9 03:17:30 39° W 03:18:17 41° WSW 03:23:15 10° S
Okean 1 4.3 03:14:38 10° N 03:18:29 46° E 03:22:17 10° SSE
Cosmos 2263 Rocket 2.0 03:13:47 10° SSW 03:19:20 67° WNW 03:24:54 10° NNE
SKYMED 2 3.5 03:15:42 10° SSE 03:20:03 90° NW 03:23:37 15° NNW
Lacrosse 5 3.7 03:21:52 15° SW 03:21:52 15° SW 03:23:41 10° SSW
Cosmos 1602 3.8 03:18:53 10° S 03:22:41 74° E 03:26:30 10° N
MOS 1-B 4.2 03:17:42 10° N 03:23:30 79° WNW 03:29:14 10° SSW
CZ-4B DEB 4.2 03:17:59 10° NNE 03:23:33 88° W 03:29:05 10° SSW
Cosmos 2195 Rocket 4.5 03:19:06 10° N 03:25:29 90° ESE 03:31:47 10° S
Cosmos 1092 Rocket 3.9 03:27:15 10° NNW 03:33:20 64° W 03:39:21 10° S
Meteor 1-18 Rocket 4.3 03:27:53 10° N 03:33:27 79° E 03:39:02 10° SSE
Cosmos 1461 3.0 03:33:47 29° NW 03:35:50 60° WSW 03:40:12 10° SSE
Okean 1-7 3.0 03:33:57 10° NNW 03:38:18 63° W 03:42:37 10° S
Cosmos 1484 Rocket 3.5 03:35:29 10° N 03:39:05 30° WNW 03:42:18 10° SW
Helios 1A Rocket 2.8 03:36:42 10° NNE 03:40:44 89° ESE 03:44:45 10° SSW
STARLINK 1044 4.1 03:40:25 21° N 03:41:42 31° NE 03:44:18 10° ESE
GEOS 3 Rocket 3.7 03:39:49 10° SSE 03:44:47 55° WSW 03:48:39 17° NW
STARLINK 1056 4.4 03:44:37 17° NNW 03:46:51 34° NE 03:50:04 10° ESE
FENGYUN 3A 3.6 03:42:11 10° N 03:47:29 60° WNW 03:52:44 10° SSW
STARLINK 1054 4.3 03:47:34 16° NNW 03:49:56 36° NE 03:53:12 10° ESE
Cosmos 1844 Rocket 3.9 03:47:22 10° S 03:52:39 45° ESE 03:57:55 10° NE
STARLINK 1062 4.2 03:50:22 16° NNW 03:52:51 39° NE 03:56:09 10° ESE
CZ-4B R/B 3.2 03:47:33 10° N 03:53:09 75° WNW 03:58:47 10° SSW
Starlink Launch 2 leader 2.5 03:52:12 27° NNW 03:53:18 62° NE 03:55:44 10° SE
CZ-4C R/B 3.7 03:48:11 17° WNW 03:53:23 36° WSW 04:00:46 10° S
Cosmos 2084 Rocket 4.3 03:51:58 20° WNW 03:54:19 34° WSW 03:58:17 10° S
STARLINK 1053 4.1 03:53:31 15° NNW 03:56:09 41° NE 03:59:29 10° ESE
Starlink Launch 2 trailer 2.3 03:55:44 25° NW 03:56:59 71° NE 03:59:25 10° SE
STARLINK 1061 4.0 03:56:12 14° NNW 03:58:56 44° NE 04:02:18 10° ESE
Cosmos 1331 Rocket 4.3 03:54:26 10° S 03:59:33 70° ESE 04:04:42 10° NNE
STARLINK 1067 3.9 03:59:10 14° NW 04:02:02 47° NE 04:05:26 10° ESE
STARLINK 1058 3.8 04:02:03 13° NW 04:05:03 50° NE 04:08:28 10° ESE
USA 116 4.4 04:02:45 10° S 04:06:48 44° W 04:11:21 10° NNW
Cosmos 1943 3.4 04:02:03 10° NNW 04:07:30 52° WSW 04:12:54 10° S
STARLINK 1043 3.7 04:04:58 12° NW 04:08:06 54° NE 04:11:33 10° ESE
COSMO-SKYMED 1 3.7 04:04:37 10° SSW 04:08:09 24° W 04:11:43 10° NW
Cosmos 2180 Rocket 4.4 04:02:51 10° S 04:08:58 77° W 04:15:08 10° N
Cosmos 332 Rocket 4.0 04:06:10 10° SSW 04:11:02 80° ESE 04:15:58 10° NNE
STARLINK 1065 3.6 04:07:51 12° NW 04:11:06 58° NE 04:14:33 10° ESE
Cosmos 1110 Rocket 3.9 04:06:13 10° SSW 04:11:23 80° WNW 04:16:36 10° NNE
Cosmos 1346 Rocket 3.3 04:08:08 10° SW 04:11:41 35° WNW 04:15:16 10° N
Cosmos 2221 Rocket 3.6 04:08:42 10° NNW 04:13:04 64° W 04:17:26 10° S
STARLINK 1063 3.5 04:10:54 11° NW 04:14:17 63° NE 04:17:45 10° ESE
FALCON 9 DEB 2.5 04:14:34 14° WNW 04:16:20 48° SW 04:18:36 10° SSE
STARLINK 1064 3.4 04:13:44 10° NW 04:17:14 68° NE 04:20:44 10° SE
H-2A R/B 2.7 04:15:53 10° N 04:19:38 87° WNW 04:23:25 10° SSW
STARLINK 1041 3.3 04:16:47 10° NW 04:20:18 73° NE 04:23:48 10° SE
STARLINK 1038 3.3 04:19:51 10° NW 04:23:23 79° NE 04:26:54 10° SE
Okean O Rocket 2.5 04:20:37 10° NNW 04:24:19 27° WNW 04:28:01 10° SW
STARLINK 1046 3.2 04:22:55 10° NW 04:26:28 85° NE 04:29:59 10° SE
Cosmos 1733 Rocket 3.1 04:24:42 10° SSW 04:28:55 54° W 04:33:09 10° N
Meteor 1-5 Rocket 4.3 04:23:20 10° SSW 04:29:17 72° W 04:35:10 10° N
STARLINK 1039 3.2 04:26:01 10° NW 04:29:33 89° SW 04:33:04 10° SE
STARLINK 1045 3.2 04:27:24 10° NW 04:30:56 87° SW 04:34:27 10° SE
Okean 3 3.7 04:27:51 10° NNW 04:31:54 48° W 04:35:57 10° SSW
Cosmos 371 Rocket 3.5 04:28:18 10° SW 04:32:57 47° WNW 04:37:39 10° N
ATLAS CENTAUR R/B 4.0 04:32:28 10° NNE 04:33:36 11° NE 04:34:44 10° ENE
Meteor 2-4 Rocket 3.7 04:31:52 10° NNW 04:37:15 59° W 04:42:30 10° S
